Other Public Products
Issued by NWS Grand Forks, ND

Home | Current Version | Previous Version | Graphics & Text | Print | Product List | Glossary On
Versions: 1 2 3 4 5 6 7 8 9 10 11 12 13 14 15 16 17 18 19 20 21 22 23 24 25 26 27 28 29 30 31 32 33 34 35 36 37 38 39 40 41 42 43 44 45 46 47 48 49 50
866
FPUS83 KFGF 221710
OPUFGF
PRAIRIE TO PINES WEATHER ROUNDUP
NATIONAL WEATHER SERVICE EASTERN NORTH DAKOTA/GRAND FORKS ND
1100 AM CST THU FEB 22 2018

 **SATELLITE DATA USED TO AUGMENT SKY COVER AT AUTOMATED STATIONS**
 *****  WEATHER ACROSS EASTERN NORTH DAKOTA  *****

CITY           SKY/WX    TMP DP  RH WIND       PRES   REMARKS
GRAND FORKS    FAIR       7   1  76 S14       30.44S WCI -10
GRND FORKS AFB FAIR       9   0  66 SW12      30.42S WCI  -6
GRND FORKS NWS   N/A      8   2  76 S13       30.41F WCI  -8
BUXTON           N/A      8   7  94 S9          N/A  WCI  -5
DEVILS LAKE    FAIR       5  -1  76 S9        30.34S WCI  -9
FARGO          FAIR      14   6  70 S14       30.45F WCI  -1
WAHPETON ARPT  CLOUDY    18   9  68 SE16      30.47F WCI   3
$$

 *****  WEATHER ACROSS CENTRAL AND WESTERN NORTH DAKOTA  *****

CITY           SKY/WX    TMP DP  RH WIND       PRES   REMARKS
JAMESTOWN      FAIR      10   3  73 S7        30.34F WCI  -1
BISMARCK       FAIR       5  -2  72 S6        30.32F WCI  -6
MINOT          FAIR       8  -5  55 S8        30.28R WCI  -4
MINOT AFB      FAIR       6  -6  57 CALM      30.28R
GARRISON         N/A      1  -4  79 CALM      30.27F
WILLISTON      FAIR       0  -9  65 S5        30.26S WCI -10
DICKINSON      FAIR       7  -4  60 W5        30.17F WCI  -2
HETTINGER      FAIR       0  -5  79 CALM      30.19R
$$

 *****  OTHER OBSERVATIONS NORTHEAST NORTH DAKOTA  *****

CITY           SKY/WX    TMP DP  RH WIND       PRES   REMARKS
WALHALLA       FAIR      14   3  62 VRB5      30.37R WCI   6
LANGDON        FAIR       7   0  72 SW12      30.31S WCI  -9
CAVALIER         N/A      3  -2  78 S12       30.39S WCI -13
GRAFTON        FAIR       5  -2  72 S14       30.44F WCI -12
CANDO          FAIR       5   1  85 S6        30.34S WCI  -6
FORT TOTTEN      N/A      8  -3  60 S7        29.95  WCI  -3
ROLLA          FAIR       5   0  78 SW14      30.27S WCI -12
RUGBY          FAIR       1  -4  78 S6        30.30F WCI -10
 ***** THE ABOVE OBSERVATIONS ARE NON NWS ARE NOT QUALITY
        CONTROLLED AND MAY MIS-REPORT RAIN FOR SNOW...
$$

 *****  OTHER OBSERVATIONS SOUTHEAST NORTH DAKOTA *****

CITY           SKY/WX    TMP DP  RH WIND       PRES   REMARKS
COOPERSTOWN    FAIR      10   5  79 S14       30.37S WCI  -5
VALLEY CITY    FLURRIES  10   7  85 S14G20    30.39F WCI  -5
OAKES            N/A     12   5  73 S10       30.39F WCI  -1
GWINNER          N/A     14   7  73 CALM      30.41F
SHEYENNE NWR     N/A     15   7  69 S10       29.95S WCI   2
BUFFALO          N/A     11   3  70 NW9         N/A  WCI  -2
WYNDMERE       NOT AVBL
 ***** THE ABOVE OBSERVATIONS ARE NON NWS ARE NOT QUALITY
       CONTROLLED AND MAY MIS-REPORT RAIN FOR SNOW...
$$

  *****  WEATHER ACROSS NORTHERN MINNESOTA  *****

CITY           SKY/WX    TMP DP  RH WIND       PRES   REMARKS
FLAG ISLAND    FAIR       3  -6  66 S5        30.43F WCI  -6
WARROAD        FAIR      14   1  57 CALM      30.44S
ROSEAU         FAIR      12   3  67 S9        30.43S WCI   0
HALLOCK        FAIR       9   1  72 S21       30.42S WCI -11
THF RVR FALLS  FAIR      13   4  67 S14       30.45S WCI  -2
HALSTAD        NOT AVBL
FOSSTON        FAIR      16   1  53 SW6       30.44F WCI   7
BAUDETTE       FAIR      14   0  53 S8        30.43S WCI   3
WASKISH        FAIR      21   1  42 S7        30.45R WCI  13
CROOKSTON      FAIR      10   3  72 S17       30.46F WCI  -7
$$
  *****  WEATHER ACROSS CENTRAL AND WEST MINNESOTA  *****

CITY           SKY/WX    TMP DP  RH WIND       PRES   REMARKS
BEMIDJI        FAIR      14   1  56 E6        30.44F WCI   5
PARK RAPIDS    FAIR      15   5  64 S10       30.47S WCI   2
WADENA         CLOUDY    16   3  57 SE10      30.48F WCI   3
DETROIT LAKES  HVY SNOW  19   9  63 S16       30.44F VSB<1/4 WCI   5
MOORHEAD       FAIR      12   3  67 S16       30.46F WCI  -4
FERGUS FALLS   CLOUDY    18   9  68 S17       30.48F WCI   2
ELBOW LAKE     CLOUDY    16   7  66 E15       30.48F WCI   1
MORRIS MN      PTSUNNY   18   9  68 SE14      30.47F WCI   4
STAPLES        PTSUNNY   16   1  53 S10       30.50S WCI   3
WHEATON        PTSUNNY   16   9  73 SE14      30.49F WCI   1
$$
  *****  WEATHER ELSEWHERE ACROSS MINNESOTA  *****

CITY           SKY/WX    TMP DP  RH WIND       PRES   REMARKS
DULUTH         FAIR      17   4  56 S7        30.54F WCI   8
INTRNTL FALLS  FAIR      17   1  49 SE9       30.47F WCI   6
ELY            FAIR      18   1  49 CALM      30.51F
CLOQUET        FAIR      18   1  49 SE6       30.54F WCI   9
BRAINERD       FAIR      16   2  54 S13       30.52F WCI   2
HIBBING        FAIR      15   1  53 VRB7      30.52F WCI   5
ALEXANDRIA     CLOUDY    15   3  59 SE10      30.48F WCI   2
SAINT CLOUD    CLOUDY    16   7  67 SE5       30.53F WCI   9
MINNEAPOLIS    CLOUDY    22  11  62 SE7       30.54F WCI  13
$$

  *****  WEATHER ACROSS SOUTH DAKOTA  *****

CITY           SKY/WX    TMP DP  RH WIND       PRES   REMARKS
SIOUX FALLS    CLOUDY    22  17  81 E10       30.40F WCI  11
BROOKINGS      CLOUDY    20  16  84 E9        30.39F WCI   9
WATERTOWN      CLOUDY    19  14  81 SE13      30.37F WCI   6
HURON          CLOUDY    21  16  81 SE10      30.38F WCI  10
SISSETON         N/A     17  11  77 SE14      30.43F WCI   3
ABERDEEN       CLOUDY    18  10  71 S6        30.39F WCI  10
MITCHELL       PTSUNNY   23  17  78 SE12      30.40S WCI  12
PIERRE         PTSUNNY   14  11  87 SE12      30.28F WCI   0
MOBRIDGE       FAIR       6  -1  73 CALM      30.27F
RAPID CITY     FAIR       7   1  76 CALM      30.13S
$$

  *****  SOME WEATHER IN NEARBY STATES *****

CITY           SKY/WX    TMP DP  RH WIND       PRES   REMARKS
GLASGOW MT     FAIR     -15 -21  74 NW6       30.24R WCI -29
GREAT FALLS MT FAIR       1  -5  75 SW7       30.15R WCI -12
CHEYENNE WY    PTSUNNY   17  10  74 CALM      29.93F
SCOTTSBLUFF NE LGT SNOW  19  15  84 E7        30.09F FOG     WCI  10
OMAHA NE       FLURRIES  27  22  81 SE9       30.41F WCI  18
DES MOINES IA  CLOUDY    27  23  85 E10G22    30.41F WCI  17
DAVENPORT IA   CLOUDY    33  25  72 E20       30.49F WCI  21
CHICAGO IL     CLOUDY    38  29  70 E14       30.53F
EAU CLAIRE WI  CLOUDY    23   8  52 E6        30.58F WCI  16
LA CROSSE WI   CLOUDY    26  17  68 NE7       30.55F WCI  18
$$

  *****  SOME NATIONAL WEATHER *****

CITY           SKY/WX    TMP DP  RH WIND       PRES   REMARKS
LA GUARDIA NY  LGT RAIN  46  35  65 NE13      30.58F
RALEIGH NC     CLOUDY    69  62  78 SW13      30.48S
ATLANTA GA     FAIR      74  64  71 S10       30.46S
NEW ORLEANS LA PTSUNNY   81  70  69 S15       30.31S
OKLAHOMA CITY  TSTM      30  29  96 E16       30.25F FOG     WCI  19
ALBUQUERQUE NM CLOUDY    36  22  56 NW3       30.09R
SALT LAKE CITY PTSUNNY   30  14  51 SE15      29.97F WCI  19
LOS ANGELES CA FAIR      54  36  50 E8        30.24R
BOISE ID       LGT SNOW  25  22  88 NW7       29.98S VSB 1   WCI  17
SEATTLE WA     FAIR      30  23  75 N12       30.28R WCI  20
$$

*** WEATHER ACROSS MANITOBA...SASKATCHEWAN AND ONTARIO ***
                ***ONTARIO***

CITY           SKY/WX    TMP DP  RH WIND       PRES   REMARKS
GERALDTON      SUNNY     14   0  52 SW13      30.57S WCI   0
THUNDER BAY    MOSUNNY   16   5  62 E5        30.64F WCI   9
SIOUX LOOKOUT  MOSUNNY   12   0  57 S9        30.45F WCI   0
TORONTO        CLOUDY    32  23  69 NE6       30.68R
BIG TROUT LK   SUNNY      5  -4  66 SW10G17   30.26F WCI -10
PICKLE LAKE    MOSUNNY    9  -4  56 SW12      30.41F WCI  -6
DRYDEN         SUNNY     12   0  57 S9        30.43F WCI   0
KENORA         SUNNY     10  -2  56 S12       30.40F WCI  -4
$$
                *** MANITOBA***

CITY           SKY/WX    TMP DP  RH WIND       PRES   REMARKS
BRANDON        MOSUNNY    1  -6  71 VRB2      30.29R
DAUPHIN        SUNNY      7  -2  66 NW10      30.24S WCI  -8
ISLAND LAKE    SUNNY      9  -4  56 SW15G24   30.14F WCI  -8
PILOT MOUND      N/A      3  -2  78 S10         N/A  WCI -12
THE PAS        MOSUNNY   10  -4  52 W20G25    30.03S WCI  -8
THOMPSON       FLURRIES   7  -4  61 SW16G25   29.87F WCI -11
WINNIPEG       SUNNY      7  -2  66 S18       30.37F WCI -12
LYNN LAKE      LGT SNOW   7   1  78 NW21G29   29.77R VSB 3/4 WCI -13
CHURCHILL      PTSUNNY    1  -6  71 SW18G29   29.67S WCI -19
GILLAM         PTSUNNY    3  -8  60 SW18G28   29.86F WCI -17
$$
                ***SASKATCHEWAN***

CITY           SKY/WX    TMP DP  RH WIND       PRES   REMARKS
ESTEVAN        MOSUNNY    3  -8  60 SW13      30.23R WCI -14
KINDERSLEY     FLURRIES   0  -6  78 SW7       30.15S WCI -13
LLOYDMINSTER   MOSUNNY   10   7  85 W13G20    30.13R WCI  -5
PRINCE ALBERT  PTSUNNY    0  -8  71 W7        30.14R WCI -13
REGINA         PTSUNNY   -2  -9  71 S6        30.19R WCI -14
YORKTON        SUNNY      1  -6  71 SW17      30.16S W



USA.gov is the U.S. government's official web portal to all federal, state and local government web resources and services.